Hoyerswerda

Germany     51˚26′20″N   14˚15′10″E
temp.,
°C
wind,
m/s
gust,
m/s
humid.,
%
clouds,
%
prec.,
mm/h
press.,
hPa
HPBL,
m
2 december, wed
wed201:00−1˚se23843 0.0 1023111
04:00−2˚se22860 0.0 102255
07:00−2˚se24850 0.0 1022126
10:00sse37720 0.0 1022422
13:00+2˚se36590 0.0 1019623
16:00−1˚se23740 0.0 101837
19:00−2˚se23790 0.0 101687
22:00−2˚se277636 0.0 1015210
3 december, thu
thu301:00−1˚se286368 0.0 1013275
04:00−1˚sse31063100 0.0 1011739
07:00−1˚s31070100 0.0 1010576
10:00ssw4866100 0.0 1009539
13:00+2˚s476395 0.0 1007783
16:00s4107385 0.0 1005471
19:00−1˚s4117842 0.0 1004365
22:00−1˚sse311790 0.0 1003387
4 december, fri
fri401:00−1˚se411780 0.0 1001406
04:00−2˚se36920 0.0 998132
07:00+1˚ese389417 0.0 997205
10:00+4˚se31186100 0.0 996541
13:00+6˚se31075100 0.0 995715
16:00+3˚ese41087100 0.0 994259
19:00+3˚se4148381 0.0 994527
22:00+3˚se2684100 0.0 995174
5 december, sat
sat501:00+4˚sse31485100 0.0 996490
04:00+4˚se388735 0.0 995180
07:00+6˚se5168018 0.0 995838
10:00+8˚se5157447 0.0 9961010
13:00+10˚sse4136674 0.0 9971234
16:00+8˚se4137398 0.0 996486
19:00+7˚ese3158352 0.0 997758
22:00+8˚se4157617 0.0 998934
6 december, sun
sun601:00+9˚se5167558 0.0 998996
04:00+8˚se41579100 0.0 998908
07:00+8˚ese41479100 0.0 998750
10:00+10˚se31576100 0.0 9991105
13:00+12˚se61467100 0.0 9981203
16:00+10˚ese51472100 0.0 9981065
19:00+10˚ese51475100 0.8 9981152
22:00+10˚ese51377100 0.7 9981029